Location: Góry Miechowskie
(50.3599°N, 20.1803°E)
Time: 23:31:45
(UTC+00:00)

S-56A Canister/Altair - Pass Details

Date: 13 September 2024
Orbit: 636 x 2487 km, 38.9° (Epoch: 09 October)

Event Time Altitude Azimuth Distance (km) Brightness Sun altitude
Rises 22:40:53 0° 269° (W) 4,393 11.4 -36.3°
Enters shadow 22:42:44 - 263° (W) 3,945 11.1 -36.3°
Reaches altitude 10° 22:43:59 10° 258° (WSW) 3,677 - -36.3°
Maximum altitude 22:51:58 29° 204° (SSW) 3,034 - -36.2°
Drops below altitude 10° 23:02:22 10° 152° (SSE) 4,848 - -36.0°
Sets 23:07:16 0° 143° (SE) 6,025 - -35.9°
